Ely, MN

6:02 AM CDT on April 24, 2018 (GMT -0500)
Ely Municipal

Weather History for KELO - September, 2013

Change the Weather History Date:

Saturday, September 21, 2013

  Actual Average Record
Temperature  
Mean Temperature 42 °F -  
Max Temperature 51 °F 61 °F 77 °F (2015)
Min Temperature 32 °F 40 °F 26 °F (1999)
Degree Days  
Heating Degree Days 23    
Moisture  
Dew Point 37 °F    
Average Humidity 81    
Maximum Humidity 100    
Minimum Humidity 54    
Precipitation  
Precipitation 0.00 in - - ()
Sea Level Pressure  
Sea Level Pressure 29.92 in    
Wind  
Wind Speed 4 mph (NW)    
Max Wind Speed 12 mph    
Max Gust Speed 18 mph    
Visibility 10 miles    
Events Rain    
Averages and records for this station are not official NWS values.
T = Trace of Precipitation, MM = Missing Value Source: NWS Daily Summary

Daily Weather History Graph

Daily Weather History Graph

Search for Another Location

Airport or City:

Astronomy

Sep. 21, 2013 Rise Set
Actual Time 6:53 AM CDT 7:06 PM CDT
Civil Twilight 6:22 AM CDT 7:37 PM CDT
Nautical Twilight 5:45 AM CDT 8:13 PM CDT
Astronomical Twilight 5:07 AM CDT 8:51 PM CDT
Moon 8:02 PM CDT (9/21) 9:25 AM CDT (9/21)
Length of Visible Light 13h 15m
Length of Day
12h 13m
Waning Gibbous, 94% of the Moon is Illuminated
Sep 21
Waning Gibbous
Sep 26
Last Quarter
Oct 4
New
Oct 11
First Quarter
Oct 18
Full

Hourly Weather History & Observations

Time (CDT) Temp. Windchill Dew Point Humidity Pressure Visibility Wind Dir Wind Speed Gust Speed Precip Events Conditions
12:13 AM 44.6 °F 42.2 °F 42.8 °F 93% 29.83 in 10.0 mi WNW 4.6 mph - N/A   Overcast
12:33 AM 44.6 °F 43.1 °F 42.8 °F 93% 29.83 in 10.0 mi WNW 3.5 mph - N/A   Overcast
12:52 AM 42.8 °F 38.0 °F 41.0 °F 93% 29.84 in 7.0 mi NNW 8.1 mph 17.3 mph N/A Rain Light Rain
1:13 AM 42.8 °F 39.3 °F 41.0 °F 93% 29.85 in 4.0 mi NNW 5.8 mph - N/A   Drizzle
1:33 AM 42.8 °F 41.1 °F 39.2 °F 87% 29.86 in 10.0 mi NNW 3.5 mph - N/A   Overcast
1:52 AM 42.8 °F 40.1 °F 39.2 °F 87% 29.86 in 10.0 mi NNW 4.6 mph - N/A   Overcast
2:13 AM 41.0 °F - 39.2 °F 93% 29.86 in 10.0 mi Calm Calm - N/A   Overcast
2:33 AM 41.0 °F - 39.2 °F 93% 29.86 in 10.0 mi Calm Calm - N/A   Overcast
2:52 AM 41.0 °F - 39.2 °F 93% 29.86 in 10.0 mi Calm Calm - N/A   Overcast
3:13 AM 41.0 °F - 39.2 °F 93% 29.87 in 10.0 mi Calm Calm - N/A   Overcast
3:33 AM 39.2 °F 37.0 °F 37.4 °F 93% 29.88 in 10.0 mi NW 3.5 mph - N/A   Overcast
3:52 AM 39.2 °F 37.0 °F 37.4 °F 93% 29.88 in 10.0 mi WNW 3.5 mph - N/A   Scattered Clouds
4:13 AM 37.4 °F - 35.6 °F 93% 29.89 in 10.0 mi Calm Calm - N/A   Clear
4:32 AM 37.4 °F - 35.6 °F 93% 29.89 in 10.0 mi Calm Calm - N/A   Clear
4:53 AM 35.6 °F - 35.6 °F 100% 29.89 in 10.0 mi Calm Calm - N/A   Clear
5:11 AM 35.6 °F - 35.6 °F 100% 29.89 in 10.0 mi Calm Calm - N/A   Clear
5:33 AM 35.6 °F - 35.6 °F 100% 29.90 in 10.0 mi Calm Calm - N/A   Clear
5:52 AM 35.6 °F - 35.6 °F 100% 29.91 in 10.0 mi Calm Calm - N/A   Clear
6:13 AM 35.6 °F - 35.6 °F 100% 29.91 in 10.0 mi Calm Calm - N/A   Mostly Cloudy
6:33 AM 35.6 °F - 35.6 °F 100% 29.91 in 10.0 mi Calm Calm - N/A   Mostly Cloudy
6:52 AM 35.6 °F - 35.6 °F 100% 29.92 in 10.0 mi Calm Calm - N/A   Mostly Cloudy
7:12 AM 35.6 °F - 35.6 °F 100% 29.93 in 10.0 mi Calm Calm - N/A   Mostly Cloudy
7:33 AM 37.4 °F - 35.6 °F 93% 29.93 in 10.0 mi Calm Calm - N/A   Mostly Cloudy
7:53 AM 39.2 °F - 37.4 °F 93% 29.94 in 10.0 mi Calm Calm - N/A   Overcast
8:12 AM 39.2 °F 35.9 °F 37.4 °F 93% 29.94 in 10.0 mi NW 4.6 mph - N/A   Mostly Cloudy
8:33 AM 41.0 °F 34.7 °F 37.4 °F 87% 29.94 in 10.0 mi NW 10.4 mph 16.1 mph N/A   Mostly Cloudy
8:53 AM 41.0 °F 35.8 °F 35.6 °F 81% 29.94 in 10.0 mi NW 8.1 mph - N/A   Scattered Clouds
9:12 AM 41.0 °F 36.4 °F 35.6 °F 81% 29.94 in 10.0 mi NW 6.9 mph - N/A   Scattered Clouds
9:33 AM 41.0 °F 35.2 °F 35.6 °F 81% 29.95 in 10.0 mi NNW 9.2 mph 18.4 mph N/A   Scattered Clouds
9:53 AM 41.0 °F 39.0 °F 35.6 °F 81% 29.95 in 10.0 mi NW 3.5 mph - N/A   Mostly Cloudy
10:12 AM 42.8 °F 38.0 °F 35.6 °F 76% 29.95 in 10.0 mi NW 8.1 mph - N/A   Overcast
10:33 AM 42.8 °F 40.1 °F 35.6 °F 76% 29.95 in 10.0 mi NNW 4.6 mph - N/A   Mostly Cloudy
10:53 AM 44.6 °F 41.4 °F 33.8 °F 66% 29.95 in 10.0 mi North 5.8 mph - N/A   Clear
11:12 AM 44.6 °F 39.2 °F 35.6 °F 71% 29.95 in 10.0 mi WNW 10.4 mph 16.1 mph N/A   Scattered Clouds
11:33 AM 44.6 °F 40.2 °F 35.6 °F 71% 29.94 in 10.0 mi NW 8.1 mph - N/A   Mostly Cloudy
11:52 AM 46.4 °F 42.4 °F 35.6 °F 66% 29.94 in 10.0 mi North 8.1 mph - N/A   Scattered Clouds
12:13 PM 48.2 °F - 37.4 °F 66% 29.94 in 10.0 mi WNW 6.9 mph - N/A   Mostly Cloudy
12:33 PM 46.4 °F 41.9 °F 37.4 °F 71% 29.94 in 10.0 mi WNW 9.2 mph - N/A   Mostly Cloudy
12:52 PM 46.4 °F 42.9 °F 35.6 °F 66% 29.94 in 10.0 mi NW 6.9 mph - N/A   Scattered Clouds
1:13 PM 48.2 °F - 35.6 °F 62% 29.94 in 10.0 mi NW 10.4 mph 16.1 mph N/A   Clear
1:32 PM 46.4 °F 45.2 °F 37.4 °F 71% 29.94 in 10.0 mi NW 3.5 mph 16.1 mph N/A   Scattered Clouds
1:53 PM 50.0 °F - 35.6 °F 58% 29.94 in 10.0 mi NW 11.5 mph 16.1 mph N/A   Scattered Clouds
2:12 PM 48.2 °F - 35.6 °F 62% 29.94 in 10.0 mi NW 5.8 mph - N/A   Clear
2:32 PM 50.0 °F - 37.4 °F 62% 29.94 in 10.0 mi North 5.8 mph - N/A   Scattered Clouds
2:53 PM 51.8 °F - 37.4 °F 58% 29.94 in 10.0 mi NW 5.8 mph - N/A   Scattered Clouds
3:12 PM 51.8 °F - 37.4 °F 58% 29.93 in 10.0 mi NW 9.2 mph - N/A   Clear
3:32 PM 51.8 °F - 35.6 °F 54% 29.93 in 10.0 mi WNW 5.8 mph - N/A   Clear
3:53 PM 51.8 °F - 37.4 °F 58% 29.93 in 10.0 mi WNW 6.9 mph - N/A   Clear
4:13 PM 51.8 °F - 37.4 °F 58% 29.93 in 10.0 mi NW 8.1 mph - N/A   Clear
4:32 PM 51.8 °F - 37.4 °F 58% 29.93 in 10.0 mi North 3.5 mph - N/A   Clear
4:53 PM 51.8 °F - 37.4 °F 58% 29.93 in 10.0 mi NNE 3.5 mph - N/A   Clear
5:13 PM 51.8 °F - 37.4 °F 58% 29.93 in 10.0 mi NW 5.8 mph - N/A   Clear
5:31 PM 51.8 °F - 37.4 °F 58% 29.93 in 10.0 mi NW 6.9 mph - N/A   Clear
5:53 PM 51.8 °F - 37.4 °F 58% 29.93 in 10.0 mi NNW 3.5 mph - N/A   Clear
6:12 PM 50.0 °F - 37.4 °F 62% 29.93 in 10.0 mi Calm Calm - N/A   Clear
6:33 PM 50.0 °F - 37.4 °F 62% 29.93 in 10.0 mi Calm Calm - N/A   Clear
6:53 PM 48.2 °F - 37.4 °F 66% 29.93 in 10.0 mi Calm Calm - N/A   Clear
7:12 PM 46.4 °F - 37.4 °F 71% 29.92 in 10.0 mi Calm Calm - N/A   Clear
7:33 PM 44.6 °F - 37.4 °F 76% 29.93 in 10.0 mi Calm Calm - N/A   Clear
7:53 PM 41.0 °F - 37.4 °F 87% 29.94 in 10.0 mi Calm Calm - N/A   Clear
8:12 PM 39.2 °F - 35.6 °F 87% 29.94 in 10.0 mi Calm Calm - N/A   Clear
8:33 PM 39.2 °F - 37.4 °F 93% 29.94 in 10.0 mi Calm Calm - N/A   Clear
8:53 PM 37.4 °F - 35.6 °F 93% 29.95 in 10.0 mi Calm Calm - N/A   Clear
9:12 PM 37.4 °F - 35.6 °F 93% 29.95 in 10.0 mi Calm Calm - N/A   Clear
9:33 PM 35.6 °F - 35.6 °F 100% 29.95 in 10.0 mi Calm Calm - N/A   Clear
9:53 PM 35.6 °F - 35.6 °F 100% 29.96 in 10.0 mi Calm Calm - N/A   Clear
10:12 PM 35.6 °F - 35.6 °F 100% 29.96 in 10.0 mi Calm Calm - N/A   Clear
10:33 PM 35.6 °F - 33.8 °F 93% 29.97 in 10.0 mi Calm Calm - N/A   Clear
10:53 PM 33.8 °F - 32.0 °F 93% 29.97 in 4.0 mi Calm Calm - N/A   Clear
11:12 PM 33.8 °F - 32.0 °F 93% 29.98 in 10.0 mi Calm Calm - N/A   Clear
11:33 PM 33.8 °F - 32.0 °F 93% 29.98 in 10.0 mi Calm Calm - N/A   Clear
11:53 PM 32.0 °F - 30.2 °F 93% 29.98 in 10.0 mi Calm Calm - N/A   Clear